WESTFORD NEEDLES, 21660

Orbit data source: Space-Track

WESTFORD NEEDLES, 21660 is space debris in LEO originally from a launch on Thu, 09 May 1963 UTC launched from the Air Force Western Test Range (AFWTR). Debris objects in space refer to the collection of defunct objects orbiting the Earth. Examples of debris include non-operational satellites, rocket bodies, and fragments generated from explosions, collisions, or faulty payload assembly.

Loading next visibility...
Identifier
21660, 1963-014FG
Orbit
LEO
Country
Flag of USUS
Related business
Manufacturer
Unknown
Mission
Spacecraft
Bus & Motor
Unknown
Mass
Unknown
Launch date (UTC)
1963-05-09 (63 years ago)
Launch vehicle
Unknown
Launch site
Air Force Western Test Range (AFWTR)
Object type
Payload
Rocket body
Debris
Shape & HBR
Unknown shape, 0.2 m
Radar Cross Section
Medium (>0.1 m² and <1 m²)

Expand to show TLE details & history
Last TLE update: 1 day ago

TLE from 1 day ago
0 WESTFORD NEEDLES
1 21660U 63014FG  26106.46354882  .00000157  00000-0  20777-1 0  9991
2 21660  86.7280 268.9723 1456346  77.1062 347.4231  8.77669784 60289
Epoch: 2026-04-16T11:07Z
TLE epoch observation values (Epoch: 2026-04-16T11:07:30.618Z)
Latitude
60.04106°
Longitude
-96.85039°
Altitude
2,160.821 km
Speed
7.305 km/s
True Right ascension
18h 18m 33s
True Declination
59° 54' 60"
Sunlit
Object was in daylight at epoch
Visualization orbit readout
Latitude
Unknown
Longitude
Unknown
Altitude
Unknown
Speed
Unknown
Apparent Right ascension
Unknown
Apparent Declination
Unknown
Sunlit
N/A
Visualization observer readout
Local Sidereal Time
01:08:01
Azimuth
Unknown
Elevation
Unknown
Doppler factor
Unknown
Orbital elements
Apogee altitude
4,992.765 km
Perigee altitude
2,101.796 km
Semi-major axis
9,925.418 km
Eccentricity
0.14563
Inclination
86.728°
RAAN
268.9723°
Arg. of periapsis
77.1062°
True anomaly
343.01692°
Mean anomaly
347.4231°
Eccentric anomaly
345.30661°
Mean motion
2.19493 °/min
Orbital period
164.01 mins
BSTAR
0.020777
Loading maneuver chart data...
Computing Atmospheric mass density...

Documentation

Showing up to 5 results
|